Regional Weather Roundup
Issued by NWS

Home | Current Version | Previous Version | Graphics & Text | Print | Product List | Glossary On
Versions: 1 2 3 4 5 6 7 8 9 10 11 12 13 14 15 16 17 18 19 20 21 22 23 24 25 26 27 28 29 30 31 32 33 34 35 36 37 38 39 40 41 42 43 44 45 46 47 48 49 50
000
ASUS43 KLOT 140503
RWRIL

ILLINOIS REGIONAL WEATHER ROUNDUP
NATIONAL WEATHER SERVICE CHICAGO/ROMEOVILLE IL
1100 PM CST SAT FEB 13 2016

NOTE: "FAIR" INDICATES FEW OR NO CLOUDS BELOW 12,000 FEET WITH NO
SIGNIFICANT WEATHER AND/OR OBSTRUCTIONS TO VISIBILITY.

* THESE STATIONS ARE NOT UNDER NWS QUALITY CONTROL. THEY ALSO MAY NOT
  REPORT WEATHER SUCH AS PRECIPITATION OR FOG.

ILZ001-002-007-009-015-016-024-140600-
NORTHWEST ILLINOIS

CITY           SKY/WX    TMP DP  RH WIND       PRES   REMARKS
MOLINE         CLOUDY    17   0  47 E10       30.42F WCI   5
STERLING*      CLOUDY    16   0  48 E9        30.40F WCI   4
$$

ILZ003-004-008-010-011-017-018-140600-
NORTH CENTRAL ILLINOIS

CITY           SKY/WX    TMP DP  RH WIND       PRES   REMARKS
ROCKFORD       CLOUDY    10  -1  61 E7        30.46F WCI  -1
FREEPORT*      PTCLDY     8   2  76 E3        30.44F
$$

ILZ005-006-012>014-019>023-140600-
NORTHEAST ILLINOIS

CITY           SKY/WX    TMP DP  RH WIND       PRES   REMARKS
CHICAGO-OHARE  CLOUDY    12  -4  48 N3        30.47S
CHICAGO-MIDWAY CLOUDY    15  -2  46 S5        30.48S WCI   8
AURORA         CLOUDY    11   4  73 NE3       30.46F
WAUKEGAN       CLOUDY     4  -1  80 CALM      30.46F
DUPAGE AIRPORT CLOUDY     6  -2  69 NE3       30.45F
WHEELING       CLOUDY    10  -1  61 CALM      30.49S
NORTHERLY ISL    N/A     15  -1  49 S6          N/A  WCI   7
$$

LMZ740>746-140600-
SOUTHERN LAKE MICHIGAN

STATION/POSITION SKY/WX   TEMP    WIND        PRES    VSBY  WAVE
                          AIR SEA DIR/SP/G                  HT/PER
                          (F)     (DEG/KT/KT) (MB)    (MI)  (FT/S)
HARRISON CRIB              17     310/  3/  4   N/A
BURNHAM HARBOR             15     190/  5/  7   N/A
CALUMET HARBOR             13     170/  5/  7 1031.5F
BURNS HARBOR               11     180/  6/  8 1032.8S
MICHIGAN CITY               9     130/  7/  8   N/A
$$

ILZ025>027-034>036-040-047-049-050-058-095>099-140600-
WEST-CENTRAL ILLINOIS

CITY           SKY/WX    TMP DP  RH WIND       PRES   REMARKS
QUINCY         CLOUDY    17  11  77 SE8       30.39S WCI   7
MACOMB*        LGT SNOW  18   8  65 SE14      30.43F WCI   4
$$

ILZ028>032-037-038-041>044-048-051>054-059>061-140600-
CENTRAL ILLINOIS

CITY           SKY/WX    TMP DP  RH WIND       PRES   REMARKS
BLOOMINGTON    MOCLDY    17   5  59 SE8       30.43F WCI   7
DECATUR        CLOUDY    18   3  52 SE9       30.43F WCI   7
PEORIA         MOCLDY    18  -1  43 SE8       30.43F WCI   8
SPRINGFIELD    CLOUDY    20   6  55 SE9       30.43F WCI   9
TAYLORVILLE    NOT AVBL
$$

ILZ033-039-045-046-055>057-062-063-140600-
EAST-CENTRAL ILLINOIS

CITY           SKY/WX    TMP DP  RH WIND       PRES   REMARKS
CHAMPAIGN      MOCLDY    17   4  56 SE8       30.44F WCI   7
MATTOON        CLOUDY    17   2  51 E6        30.44F WCI   9
$$

ILZ079-100>102-140600-
SOUTHWEST ILLINOIS

CITY           SKY/WX    TMP DP  RH WIND       PRES   REMARKS
BELLEVILLE     CLOUDY    23   6  48 E10       30.41F WCI  12
CAHOKIA*       CLOUDY    24   5  44 SE8       30.42F WCI  15
SPARTA*        CLOUDY    23   9  56 E9        30.43F WCI  13
$$

ILZ064>066-069>071-074>076-080>082-084>086-088>090-092>094-140600-
SOUTH-CENTRAL ILLINOIS

CITY           SKY/WX    TMP DP  RH WIND       PRES   REMARKS
CARBONDALE     CLOUDY    23   5  46 E9        30.44F WCI  13
MT. VERNON     CLOUDY    21   3  45 E8        30.45S WCI  12
CENTRALIA*     CLOUDY    22   8  53 E6        30.43S WCI  15
SALEM*         CLOUDY    22   5  47 E3        30.43F
$$

ILZ067-068-072-073-078-083-087-091-140600-
SOUTHEAST ILLINOIS

CITY           SKY/WX    TMP DP  RH WIND       PRES   REMARKS
LAWRENCEVILLE  MOCLDY    19   3  49 E8        30.48F WCI   9
HARRISBURG*    CLOUDY    23   9  54 E7        30.46S WCI  15
$$

ABBREVIATIONS USED IN REMARKS
   TC - TEMPERATURE IN CELSIUS
  WCI - WIND CHILL INDEX
   HX - HEAT INDEX
  VSB - VISIBILITY
$$




USA.gov is the U.S. government's official web portal to all federal, state and local government web resources and services.